• MPC Preparation (Info)

  • MPEC 2015-F114: 2015 FU117

    The following Minor Planet Electronic Circular may be linked-to from your own Web pages, but must not otherwise be redistributed electronically.

    A form allowing access to any MPEC is at the bottom of this page.


    Read MPEC 2015-F113 Read MPEC 2015-F115


    M.P.E.C. 2015-F114                               Issued 2015 Mar. 26, 15:26 UT
    
         The Minor Planet Electronic Circulars contain information on unusual
             minor planets and routine data on comets.  They are published
       on behalf of Commission 20 of the International Astronomical Union by the
              Minor Planet Center, Smithsonian Astrophysical Observatory,
                              Cambridge, MA 02138, U.S.A.
    
                 Prepared using the Tamkin Foundation Computer Network
    
                                  MPC@CFA.HARVARD.EDU
                URL https://www.minorplanetcenter.net/    ISSN 1523-6714
    
                                      2015 FU117
    
    Observations:
         K15FB7U* C2015 03 24.28802 12 31 54.24 -05 04 43.3          21.3 VqEF114G96
         K15FB7U  C2015 03 24.29313 12 31 53.80 -05 04 22.7          21.9 VqEF114G96
         K15FB7U  C2015 03 24.29823 12 31 53.29 -05 04 02.0          21.7 VqEF114G96
         K15FB7U  C2015 03 24.30333 12 31 52.76 -05 03 40.8          22.1 VqEF114G96
         K15FB7U  C2015 03 24.32812 12 31 50.36 -05 02 00.8          21.1 VqEF114G96
         K15FB7U  C2015 03 24.32873 12 31 50.31 -05 01 59.2          21.1 VqEF114G96
         K15FB7U  C2015 03 24.32935 12 31 50.28 -05 01 56.1          21.5 VqEF114G96
         K15FB7U  C2015 03 24.32996 12 31 50.18 -05 01 53.5          21.4 VqEF114G96
         K15FB7U  C2015 03 24.33057 12 31 50.12 -05 01 51.2          21.3 VqEF114G96
         K15FB7U  C2015 03 24.41050 12 31 42.49 -04 56 27.7          22.6 VqEF114G96
         K15FB7U  C2015 03 24.41196 12 31 42.31 -04 56 20.6                qEF114G96
         K15FB7U  C2015 03 24.41341 12 31 42.20 -04 56 15.6                qEF114G96
         K15FB7U  C2015 03 24.41487 12 31 42.10 -04 56 09.6                qEF114G96
         K15FB7U  C2015 03 24.41632 12 31 41.95 -04 56 03.9          21.5 VqEF114G96
         K15FB7U  C2015 03 25.30168 12 30 32.71 -03 55 39.2          21.2 VqEF114G96
         K15FB7U  C2015 03 25.30314 12 30 32.57 -03 55 33.1          21.9 VqEF114G96
         K15FB7U  C2015 03 25.30458 12 30 32.45 -03 55 27.0          21.7 VqEF114G96
         K15FB7U  C2015 03 25.30604 12 30 32.37 -03 55 21.0          22.5 VqEF114G96
         K15FB7U  C2015 03 25.30749 12 30 32.13 -03 55 14.8          21.8 VqEF114G96
         K15FB7U KC2015 03 26.21724 12 29 18.79 -02 51 44.2          21.5 RoEF114291
         K15FB7U KC2015 03 26.22030 12 29 18.50 -02 51 31.4          21.9 RoEF114291
         K15FB7U KC2015 03 26.22338 12 29 18.18 -02 51 19.0          22.0 RoEF114291
    
    Observer details:
    291 LPL/Spacewatch II.  Observer A. F. Tubbiolo.  1.8-m f/2.7 reflector + CCD.
    G96 Mt. Lemmon Survey.  Observers R. E. Hill, D. C. Fuls.  Measurers
        E. J. Christensen, D. C. Fuls, A. R. Gibbs, A. D. Grauer, R. E. Hill,
        J. A. Johnson, R. A. Kowalski, S. M. Larson, R. G. Matheny, F. C. Shelly.
        1.5-m reflector + CCD.
    
    Orbital elements:
    2015 FU117                                               Earth MOID = 0.0416 AU
    Epoch 2015 June 27.0 TT = JDT 2457200.5                 MPC
    M 313.06103              (2000.0)            P               Q
    n   0.88880494     Peri.  140.25519     +0.82274348     +0.56814898
    a   1.0713509      Node   185.21269     -0.55785819     +0.80124751
    e   0.1333773      Incl.   10.98844     -0.10902936     +0.18764104
    P   1.11           H   24.7           G   0.15           U   8
    Residuals in seconds of arc
    150324 G96  0.1-  0.5-    150324 G96  0.4-  0.0     150325 G96  0.2+  0.0
    150324 G96  0.6+  0.5-    150324 G96  0.1+  0.1-    150325 G96  1.1+  0.0
    150324 G96  0.4+  0.3-    150324 G96  0.5-  1.0+    150325 G96  0.3-  0.2+
    150324 G96  0.2-  0.3+    150324 G96  0.1-  0.2+    150326 291  0.0   0.3+
    150324 G96  0.3-  0.3+    150324 G96  0.4+  0.2+    150326 291  0.1+  0.2+
    150324 G96  0.2-  0.6-    150324 G96  0.2+  0.0     150326 291  0.2-  0.4-
    150324 G96  0.2+  0.0     150325 G96  0.2-  0.2-
    150324 G96  0.4-  0.1+    150325 G96  0.2-  0.1-
    
    Ephemeris:
    2015 FU117               a,e,i = 1.07, 0.13, 11                  q = 0.9285
    Date    TT    R. A. (2000) Decl.     Delta      r     Elong.  Phase     V
    2015 02 24    12 46 02.6 -23 12 39   0.2896  1.2046   132.6    37.2    23.9
    ...
    2015 03 11    12 44 41.6 -16 51 42   0.2210  1.1912   150.9    23.9    22.9
    ...
    2015 03 19    12 38 12.3 -10 31 48   0.1928  1.1818   163.8    13.6    22.3
    ...
    2015 03 25    12 30 56.8 -04 15 57   0.1772  1.1737   175.0     4.3    21.7
    2015 03 26    12 29 35.1 -03 06 37   0.1752  1.1723   176.8     2.7    21.6
    2015 03 27    12 28 11.4 -01 55 39   0.1733  1.1709   178.2     1.5    21.4
    ...
    2015 04 02    12 19 19.8 +05 34 58   0.1655  1.1618   168.2    10.1    21.8
    ...
    2015 04 10    12 07 22.4 +15 47 24   0.1640  1.1485   151.6    24.5    22.2
    ...
    2015 04 25    11 51 06.8 +31 02 51   0.1821  1.1205   125.1    47.3    23.0
    
    A. U. Tomatic                (C) Copyright 2015 MPC           M.P.E.C. 2015-F114
    

    Read MPEC 2015-F113 Read MPEC 2015-F115


    MPEC number:

    Enter an MPEC number in one of the following forms:

    • 1997-B01 (the full form)
    • J97B01 (the packed version of the full form)
    • B01 (the abbreviated form)